Regional Weather Roundup
Issued by NWS

Home | Current Version | Previous Version | Text Only | Print | Product List | Glossary Off
Versions: 1 2 3 4 5 6 7 8 9 10 11 12 13 14 15 16 17 18 19 20 21 22 23 24 25 26 27 28 29 30 31 32 33 34 35 36 37 38 39 40 41 42 43 44 45 46 47 48 49 50

000
ASUS45 KSLC 232210
RWRUT

UTAH REGIONAL WEATHER ROUNDUP
NATIONAL WEATHER SERVICE SALT LAKE CITY UT
400 PM MDT WED AUG 23 2017

UTZ001>011-023>025-232300-

NORTHERN UTAH

CITY           SKY/WX    TMP DP  RH WIND       PRES   REMARKS
BRIGHAM CITY   MOSUNNY   87  38  18 SW12      30.07F
DUGWAY         MOSUNNY   90  35  14 N6        30.05F
HILL AFB       PTSUNNY   85  43  22 W10       30.11F
LOGAN          MOSUNNY   87  46  24 VRB3      30.08F
OGDEN          MOSUNNY   86  42  21 W9        30.08F
SALT LAKE CITY PTSUNNY   85  46  25 E3        30.07F
TOOELE VALLEY  MOSUNNY   88  46  23 NE3       30.06F
WENDOVER       MOSUNNY   86  45  23 S6        30.06F
HEBER CITY     PTSUNNY   84  34  16 SW8       30.16F
WEST JORDAN    PTSUNNY   76  60  57 S6        30.12F

$$

UTZ011>015-024>027-232300-

CENTRAL/NORTHEAST UTAH

CITY           SKY/WX    TMP DP  RH WIND       PRES   REMARKS
PROVO AIRPORT  PTSUNNY   84  55  37 NW14      30.10F
MOAB/CANYONLAN SUNNY     92  32  12 W8G20     30.05F
DELTA          SUNNY     90  34  13 SW8G22    30.09F
PRICE          MOSUNNY   83  41  22 S6        30.18F
RICHFIELD      SUNNY     86  41  20 NW3       30.13F
ROOSEVELT      MOSUNNY   86  37  17 S3        30.15F
VERNAL         CLOUDY    83  44  25 N9        30.14F

$$

UTZ013>016-019>022-027-232300-

SOUTHERN UTAH

CITY           SKY/WX    TMP DP  RH WIND       PRES   REMARKS
BRYCE CANYON   PTSUNNY   74  39  28 VRB3      30.31F
CEDAR CITY     MOSUNNY   87  37  17 W16G22    30.15F
MILFORD        MOSUNNY   88  33  14 SE9G21    30.09F
ST GEORGE      MOCLDY    97  41  14 SW8       29.95F HX  92
HANKSVILLE     PTSUNNY   90  36  14 SW8G16    30.07F
KANAB          SUNNY     91  37  15 SW12      30.13F
BLANDING       CLOUDY    87  39  18 SW6       30.23F

$$

REGIONAL REPORTS     COLORADO/ARIZONA

CITY           SKY/WX    TMP DP  RH WIND       PRES   REMARKS
CRAIG, CO      CLOUDY    79  40  24 S15       30.22S
GRAND JUNCTION SUNNY     91  38  15 W12       30.09F
RIFLE, CO      CLOUDY    83  44  25 N9        30.15S
MONTROSE, CO   SUNNY     86  40  19 NW10      30.18F
CORTEZ, CO     SUNNY     87  33  14 NW14G22   30.17F
COLORADO CITY    N/A     91  37  15 N5        30.13F
PAGE, AZ       MOSUNNY   95  41  15 N10       30.03F HX  91
GRAND CANYON   PTSUNNY   80  39  23 N5        30.25F
KINGMAN, AZ    CLOUDY    95  46  18 SE10      29.98F HX  91
FLAGSTAFF, AZ  MOSUNNY   79  43  27 S13G20    30.27F

$$

REGIONAL REPORTS    NEVADA/IDAHO/WYOMING

CITY           SKY/WX    TMP DP  RH WIND       PRES   REMARKS
LAS VEGAS, NV  LGT RAIN  91  51  25 NW16G29   29.90S
ELY, NY        PTSUNNY   81  30  15 MISG      30.18F
ELKO, NV       SUNNY     88  31  13 VRB5      30.09F
POCATELLO, ID  CLOUDY    73  51  46 S15G22    30.14S THUNDER
BURLEY, ID     PTSUNNY   79  53  40 E15       30.08F
FORT BRIDGER,  CLOUDY    68  45  42 E6        30.30F
EVANSTON, WY   CLOUDY    70  44  39 E10       30.30F
ROCK SPRINGS,  CLOUDY    73  38  27 VRB6      30.26F
KEMMERER, WY     N/A     73  36  25 W10G17    30.30F

$$



USA.gov is the U.S. government's official web portal to all federal, state and local government web resources and services.